Meteo pe oră la Al Khiyam

Astăzi, 17 Ianuarie, Duminică

Timp Temperatura Precipitaţii Vânt Presiune Umiditate
00:00 +9°C° 1.3 mm 3 m/s 707 mmHg 95%
01:00 +9°C° 1.3 mm 3 m/s 707 mmHg 95%
02:00 +8°C° 1.3 mm 4 m/s 707 mmHg 96%
03:00 +8°C° 0.5 mm 4 m/s 707 mmHg 95%
04:00 +8°C° 0.5 mm 4 m/s 706 mmHg 95%
05:00 +8°C° 0.5 mm 4 m/s 706 mmHg 95%
06:00 +8°C° 0.9 mm 5 m/s 706 mmHg 95%
07:00 +8°C° 0.9 mm 6 m/s 707 mmHg 95%
08:00 +8°C° 0.9 mm 7 m/s 707 mmHg 95%
09:00 +8°C° 0.8 mm 7 m/s 707 mmHg 93%
10:00 +9°C° 0.8 mm 8 m/s 707 mmHg 92%
11:00 +9°C° 0.8 mm 8 m/s 707 mmHg 90%
12:00 +8°C° 1.3 mm 9 m/s 706 mmHg 90%
13:00 +8°C° 1.3 mm 10 m/s 706 mmHg 90%
14:00 +9°C° 1.3 mm 11 m/s 706 mmHg 89%
15:00 +8°C° 2.7 mm 11 m/s 706 mmHg 91%
16:00 +8°C° 2.7 mm 11 m/s 706 mmHg 92%
17:00 +8°C° 2.7 mm 10 m/s 706 mmHg 94%
18:00 +7°C° 2.8 mm 9 m/s 707 mmHg 93%
19:00 +7°C° 2.8 mm 8 m/s 707 mmHg 91%
20:00 +8°C° 2.8 mm 6 m/s 707 mmHg 90%
21:00 +8°C° 0.9 mm 6 m/s 708 mmHg 91%
22:00 +8°C° 0.9 mm 6 m/s 708 mmHg 91%
23:00 +7°C° 0.9 mm 6 m/s 708 mmHg 92%

Mâine, 18 Ianuarie, Luni

Timp Temperatura Precipitaţii Vânt Presiune Umiditate
00:00 +7°C° 0.5 mm 6 m/s 708 mmHg 90%
01:00 +6°C° 0.5 mm 7 m/s 709 mmHg 88%
02:00 +6°C° 0.5 mm 7 m/s 709 mmHg 86%
03:00 +6°C° 0.2 mm 7 m/s 709 mmHg 86%
04:00 +7°C° 0.2 mm 6 m/s 709 mmHg 85%
05:00 +5°C° 0.2 mm 6 m/s 710 mmHg 85%
06:00 +5°C° 0.2 mm 6 m/s 710 mmHg 85%
07:00 +7°C° 0.2 mm 5 m/s 710 mmHg 86%
08:00 +7°C° 0.2 mm 5 m/s 711 mmHg 86%
09:00 +7°C° 0.3 mm 4 m/s 711 mmHg 84%
10:00 +7°C° 0.3 mm 4 m/s 712 mmHg 82%
11:00 +9°C° 0.3 mm 3 m/s 712 mmHg 80%
12:00 +8°C° 0.4 mm 4 m/s 712 mmHg 80%
13:00 +8°C° 0.4 mm 4 m/s 711 mmHg 80%
14:00 +10°C° 0.4 mm 4 m/s 711 mmHg 80%
15:00 +8°C° 0.3 mm 4 m/s 711 mmHg 83%
16:00 +9°C° 0.3 mm 3 m/s 711 mmHg 86%
17:00 +8°C° 0.3 mm 3 m/s 711 mmHg 88%
18:00 +7°C° 0.6 mm 4 m/s 711 mmHg 90%
19:00 +7°C° 0.6 mm 5 m/s 711 mmHg 92%
20:00 +8°C° 0.6 mm 6 m/s 711 mmHg 93%
21:00 +7°C° 0.4 mm 6 m/s 710 mmHg 92%
22:00 +7°C° 0.4 mm 6 m/s 710 mmHg 90%
23:00 +7°C° 0.4 mm 6 m/s 710 mmHg 88%

Poimâine, 19 Ianuarie, Marţi

Timp Temperatura Precipitaţii Vânt Presiune Umiditate
00:00 +7°C° 0.1 mm 6 m/s 709 mmHg 87%
01:00 +5°C° 0.1 mm 6 m/s 709 mmHg 86%
02:00 +5°C° 0.1 mm 6 m/s 708 mmHg 85%
03:00 +5°C° 1.3 mm 7 m/s 708 mmHg 88%
04:00 +5°C° 1.3 mm 7 m/s 708 mmHg 91%
05:00 +6°C° 1.3 mm 7 m/s 708 mmHg 93%
06:00 +5°C° 5.3 mm 6 m/s 708 mmHg 95%
07:00 +6°C° 5.3 mm 5 m/s 708 mmHg 96%
08:00 +6°C° 5.3 mm 4 m/s 709 mmHg 98%
09:00 +6°C° 3.2 mm 4 m/s 709 mmHg 96%
10:00 +7°C° 3.2 mm 3 m/s 709 mmHg 95%
11:00 +7°C° 3.2 mm 3 m/s 709 mmHg 94%
12:00 +8°C° 0.3 mm 3 m/s 709 mmHg 90%
13:00 +9°C° 0.3 mm 3 m/s 709 mmHg 86%
14:00 +8°C° 0.3 mm 4 m/s 709 mmHg 82%
15:00 +8°C° 0.4 mm 4 m/s 709 mmHg 85%
16:00 +7°C° 0.4 mm 4 m/s 709 mmHg 87%
17:00 +7°C° 0.4 mm 4 m/s 709 mmHg 90%
18:00 +6°C° 0.4 mm 4 m/s 709 mmHg 90%
19:00 +6°C° 0.4 mm 4 m/s 710 mmHg 90%
20:00 +6°C° 0.4 mm 5 m/s 710 mmHg 89%
21:00 +6°C° 0.7 mm 5 m/s 710 mmHg 89%
22:00 +5°C° 0.7 mm 5 m/s 710 mmHg 88%
23:00 +4°C° 0.7 mm 6 m/s 710 mmHg 87%

20 Ianuarie, Miercuri

Timp Temperatura Precipitaţii Vânt Presiune Umiditate
00:00 +5°C° 0.6 mm 5 m/s 710 mmHg 87%
01:00 +5°C° 0.6 mm 5 m/s 710 mmHg 88%
02:00 +3°C° 0.6 mm 5 m/s 710 mmHg 88%
03:00 +3°C° 0.6 mm 5 m/s 710 mmHg 88%
04:00 +3°C° 0.6 mm 5 m/s 710 mmHg 88%
05:00 +3°C° 0.6 mm 5 m/s 710 mmHg 88%
06:00 +3°C° 0.9 mm 5 m/s 710 mmHg 88%
07:00 +3°C° 0.9 mm 5 m/s 711 mmHg 88%
08:00 +3°C° 0.9 mm 5 m/s 711 mmHg 89%
09:00 +3°C° 1 mm 5 m/s 712 mmHg 88%
10:00 +5°C° 1 mm 4 m/s 712 mmHg 87%
11:00 +5°C° 1 mm 4 m/s 712 mmHg 87%
12:00 +5°C° 0.3 mm 4 m/s 712 mmHg 85%
13:00 +5°C° 0.3 mm 5 m/s 712 mmHg 83%
14:00 +4°C° 0.3 mm 6 m/s 713 mmHg 81%
15:00 +5°C° 0.1 mm 5 m/s 713 mmHg 80%
16:00 +3°C° 0.1 mm 5 m/s 714 mmHg 78%
17:00 +3°C° 0.1 mm 5 m/s 714 mmHg 76%
18:00 +3°C° 0 mm 4 m/s 715 mmHg 76%
19:00 +3°C° 0 mm 3 m/s 715 mmHg 76%
20:00 +2°C° 0 mm 3 m/s 716 mmHg 76%
21:00 +3°C° 0 mm 2 m/s 716 mmHg 76%
22:00 +3°C° 0 mm 2 m/s 717 mmHg 77%
23:00 +4°C° 0 mm 2 m/s 717 mmHg 77%

21 Ianuarie, Joi

Timp Temperatura Precipitaţii Vânt Presiune Umiditate
00:00 +3°C° 0 mm 2 m/s 717 mmHg 76%
01:00 +3°C° 0 mm 2 m/s 717 mmHg 76%
02:00 +3°C° 0 mm 2 m/s 717 mmHg 75%
03:00 +3°C° 0 mm 2 m/s 717 mmHg 75%
04:00 +3°C° 0 mm 2 m/s 718 mmHg 74%
05:00 +3°C° 0 mm 1 m/s 718 mmHg 74%
06:00 +4°C° 0 mm 1 m/s 718 mmHg 71%
07:00 +5°C° 0 mm 1 m/s 719 mmHg 69%
08:00 +6°C° 0 mm 1 m/s 719 mmHg 67%
09:00 +6°C° 0 mm 2 m/s 720 mmHg 64%
10:00 +7°C° 0 mm 2 m/s 720 mmHg 62%
11:00 +8°C° 0 mm 2 m/s 720 mmHg 59%
12:00 +8°C° 0 mm 2 m/s 720 mmHg 59%
13:00 +9°C° 0 mm 2 m/s 720 mmHg 59%
14:00 +9°C° 0 mm 2 m/s 719 mmHg 58%
15:00 +8°C° 0 mm 2 m/s 719 mmHg 64%
16:00 +8°C° 0 mm 1 m/s 719 mmHg 70%
17:00 +7°C° 0 mm 1 m/s 719 mmHg 76%
18:00 +6°C° 0 mm 1 m/s 719 mmHg 76%
19:00 +6°C° 0 mm 1 m/s 719 mmHg 77%
20:00 +5°C° 0 mm 1 m/s 719 mmHg 77%
21:00 +5°C° 0 mm 1 m/s 719 mmHg 76%
22:00 +5°C° 0 mm 1 m/s 719 mmHg 75%
23:00 +5°C° 0 mm 1 m/s 719 mmHg 75%

22 Ianuarie, Vineri

Timp Temperatura Precipitaţii Vânt Presiune Umiditate
00:00 +5°C° 0 mm 1 m/s 719 mmHg 74%
01:00 +5°C° 0 mm 1 m/s 719 mmHg 73%
02:00 +5°C° 0 mm 1 m/s 718 mmHg 72%
03:00 +5°C° 0 mm 1 m/s 718 mmHg 70%
04:00 +5°C° 0 mm 1 m/s 718 mmHg 68%
05:00 +5°C° 0 mm 1 m/s 717 mmHg 67%
06:00 +6°C° 0 mm 1 m/s 718 mmHg 64%
07:00 +6°C° 0 mm 2 m/s 718 mmHg 62%
08:00 +7°C° 0 mm 2 m/s 719 mmHg 60%
09:00 +8°C° 0 mm 2 m/s 719 mmHg 56%
10:00 +9°C° 0 mm 2 m/s 719 mmHg 51%
11:00 +10°C° 0 mm 2 m/s 719 mmHg 46%
12:00 +10°C° 0 mm 2 m/s 718 mmHg 47%
13:00 +12°C° 0 mm 2 m/s 718 mmHg 47%
14:00 +12°C° 0 mm 2 m/s 717 mmHg 47%
15:00 +10°C° 0 mm 2 m/s 717 mmHg 53%
16:00 +8°C° 0 mm 2 m/s 716 mmHg 60%
17:00 +8°C° 0 mm 1 m/s 716 mmHg 66%
18:00 +7°C° 0 mm 2 m/s 716 mmHg 63%
19:00 +6°C° 0 mm 2 m/s 716 mmHg 61%
20:00 +6°C° 0 mm 2 m/s 716 mmHg 59%
21:00 +6°C° 0 mm 2 m/s 716 mmHg 56%
22:00 +5°C° 0 mm 3 m/s 716 mmHg 53%
23:00 +5°C° 0 mm 3 m/s 716 mmHg 50%
Arată mai mult

Formular de consimțământ

Meteoprog și furnizorii noștri de servicii pot stoca și accesa date personale, precum cookies, identificatori de dispozitiv sau alte tehnologii similare pe dispozitivul dumneavoastră și procesa astfel de date pentru a personaliza conținutul și reclamele, dar și pentru a oferi caracteristici de social media și pentru a analiza traficul.

  • Stocarea și/sau accesarea informațiilor pe dispozitivul dumneavoastră

    Cookies, identificatori de dispozitiv sau alte informații pot fi stocate sau accesate pe dispozitiv în scopurile indicate mai sus.

  • Reclame și conținut personalizat, evaluarea reclamelor și a conținutului, informații despre audiențe și dezvoltarea produselor

    Reclamele și conținutul pot fi personalizate pe baza unui profil. Pot fi adăugate date suplimentare pentru a personaliza mai bine reclamele și conținutul. Performanța reclamelor și conținutului poate fi măsurată. Pot fi obținute informații despre utilizatorii care au văzut reclamele și conținutul. Aceste date pot fi utilizate pentru a dezvolta sau îmbunătăți experiența utilizatorilor, sistemele și software-ul.

Dând clic pe ‘Sunt de acord’, permiteți utilizarea cookie-urilor menționate, a identificatorilor de dispozitiv, balizelor web sau altor tehnologii similare. Setările pot fi modificate din browser-ul dispozitivului dumneavoastră.

În anumite scopuri, interesele legitime pot prima asupra consimțământului. Puteți citi mai multe informații în acest sens în Politica privind Confidențialitatea Datelor și Cookie.